When you browse on this site, cookies collect data to enhance your experience and personalize the content and advertising you see.
Visit our Privacy Policy to learn more. By continuing to use the site, you agree to this use of cookies and data.
  • In Lithuania
  • List of Countries
  • For 7 days
  • Water Temperature
  • Weather Map
  • Weather Widgets
  • user-avatar
    Login

    Hourly Weather Sumgayit

    Today, 2 June, Tuesday

    Time Temperature Precipitation Wind Pressure Humidity
    00:00 +21°C° 0 mm 3 mps 735 mmHg 50%
    01:00 +21°C° 0 mm 3 mps 734 mmHg 50%
    02:00 +21°C° 0 mm 3 mps 734 mmHg 50%
    03:00 +21°C° 0 mm 2 mps 734 mmHg 51%
    04:00 +21°C° 0 mm 2 mps 734 mmHg 51%
    05:00 +23°C° 0 mm 2 mps 734 mmHg 50%
    06:00 +23°C° 0 mm 1 mps 734 mmHg 50%
    07:00 +25°C° 0 mm 2 mps 734 mmHg 47%
    08:00 +26°C° 0 mm 2 mps 734 mmHg 43%
    09:00 +28°C° 0 mm 3 mps 734 mmHg 39%
    10:00 +29°C° 0 mm 4 mps 734 mmHg 37%
    11:00 +30°C° 0 mm 5 mps 734 mmHg 36%
    12:00 +33°C° 0 mm 5 mps 734 mmHg 34%
    13:00 +32°C° 0 mm 5 mps 733 mmHg 35%
    14:00 +32°C° 0 mm 5 mps 733 mmHg 36%
    15:00 +32°C° 0 mm 6 mps 732 mmHg 37%
    16:00 +29°C° 0 mm 6 mps 732 mmHg 41%
    17:00 +27°C° 0 mm 7 mps 732 mmHg 46%
    18:00 +26°C° 0 mm 8 mps 732 mmHg 50%
    19:00 +26°C° 0 mm 6 mps 732 mmHg 49%
    20:00 +26°C° 0 mm 3 mps 732 mmHg 48%
    21:00 +26°C° 0 mm 1 mps 732 mmHg 47%
    22:00 +25°C° 0 mm 1 mps 732 mmHg 51%
    23:00 +24°C° 0 mm 1 mps 731 mmHg 56%

    Tomorrow, 3 June, Wednesday

    Time Temperature Precipitation Wind Pressure Humidity
    00:00 +23°C° 0 mm 1 mps 731 mmHg 60%
    01:00 +23°C° 0 mm 1 mps 731 mmHg 59%
    02:00 +23°C° 0 mm 2 mps 731 mmHg 59%
    03:00 +23°C° 0 mm 2 mps 731 mmHg 58%
    04:00 +23°C° 0 mm 2 mps 731 mmHg 58%
    05:00 +22°C° 0 mm 3 mps 731 mmHg 58%
    06:00 +24°C° 0 mm 3 mps 731 mmHg 58%
    07:00 +26°C° 0 mm 4 mps 731 mmHg 50%
    08:00 +29°C° 0 mm 5 mps 731 mmHg 42%
    09:00 +32°C° 0 mm 7 mps 731 mmHg 33%
    10:00 +34°C° 0 mm 7 mps 731 mmHg 30%
    11:00 +35°C° 0 mm 8 mps 731 mmHg 27%
    12:00 +38°C° 0 mm 8 mps 731 mmHg 24%
    13:00 +38°C° 0 mm 8 mps 731 mmHg 24%
    14:00 +36°C° 0 mm 7 mps 731 mmHg 23%
    15:00 +36°C° 0 mm 7 mps 731 mmHg 23%
    16:00 +34°C° 0 mm 7 mps 731 mmHg 28%
    17:00 +33°C° 0 mm 8 mps 731 mmHg 32%
    18:00 +31°C° 0 mm 8 mps 732 mmHg 36%
    19:00 +29°C° 0 mm 7 mps 732 mmHg 40%
    20:00 +28°C° 0 mm 5 mps 733 mmHg 45%
    21:00 +26°C° 0 mm 3 mps 733 mmHg 49%
    22:00 +26°C° 0 mm 2 mps 733 mmHg 51%
    23:00 +25°C° 0 mm 1 mps 734 mmHg 53%

    Day after tomorrow, 4 June, Thursday

    Time Temperature Precipitation Wind Pressure Humidity
    00:00 +25°C° 0 mm 1 mps 734 mmHg 55%
    01:00 +25°C° 0 mm 1 mps 734 mmHg 56%
    02:00 +24°C° 0 mm 1 mps 734 mmHg 57%
    03:00 +24°C° 0 mm 1 mps 734 mmHg 58%
    04:00 +24°C° 0 mm 3 mps 735 mmHg 57%
    05:00 +25°C° 0 mm 5 mps 736 mmHg 55%
    06:00 +24°C° 0 mm 7 mps 736 mmHg 54%
    07:00 +27°C° 0 mm 8 mps 737 mmHg 51%
    08:00 +28°C° 0 mm 8 mps 737 mmHg 49%
    09:00 +29°C° 0 mm 8 mps 737 mmHg 46%
    10:00 +29°C° 0 mm 8 mps 737 mmHg 44%
    11:00 +29°C° 0 mm 8 mps 738 mmHg 42%
    12:00 +31°C° 0 mm 8 mps 738 mmHg 39%
    13:00 +29°C° 0 mm 8 mps 737 mmHg 40%
    14:00 +29°C° 0 mm 8 mps 737 mmHg 41%
    15:00 +29°C° 0 mm 9 mps 737 mmHg 41%
    16:00 +28°C° 0 mm 8 mps 737 mmHg 43%
    17:00 +27°C° 0 mm 7 mps 737 mmHg 45%
    18:00 +26°C° 0 mm 6 mps 737 mmHg 46%
    19:00 +25°C° 0 mm 5 mps 737 mmHg 47%
    20:00 +25°C° 0 mm 3 mps 738 mmHg 48%
    21:00 +24°C° 0 mm 2 mps 738 mmHg 49%
    22:00 +24°C° 0 mm 1 mps 737 mmHg 50%
    23:00 +23°C° 0 mm 1 mps 737 mmHg 51%

    5 June, Friday

    Time Temperature Precipitation Wind Pressure Humidity
    00:00 +21°C° 0 mm 0 mps 737 mmHg 52%
    01:00 +21°C° 0 mm 0 mps 737 mmHg 53%
    02:00 +20°C° 0 mm 0 mps 737 mmHg 54%
    03:00 +20°C° 0 mm 0 mps 736 mmHg 55%
    04:00 +21°C° 0 mm 0 mps 737 mmHg 53%
    05:00 +23°C° 0 mm 1 mps 737 mmHg 52%
    06:00 +24°C° 0 mm 1 mps 738 mmHg 50%
    07:00 +25°C° 0 mm 2 mps 738 mmHg 47%
    08:00 +26°C° 0 mm 2 mps 738 mmHg 44%
    09:00 +28°C° 0 mm 3 mps 739 mmHg 41%
    10:00 +28°C° 0 mm 4 mps 739 mmHg 39%
    11:00 +29°C° 0 mm 6 mps 739 mmHg 36%
    12:00 +30°C° 0 mm 7 mps 739 mmHg 33%
    13:00 +31°C° 0 mm 9 mps 739 mmHg 35%
    14:00 +29°C° 0 mm 10 mps 739 mmHg 37%
    15:00 +29°C° 0 mm 12 mps 739 mmHg 39%
    16:00 +28°C° 0 mm 12 mps 739 mmHg 43%
    17:00 +27°C° 0 mm 12 mps 739 mmHg 47%
    18:00 +26°C° 0 mm 12 mps 739 mmHg 51%
    19:00 +24°C° 0 mm 11 mps 740 mmHg 53%
    20:00 +24°C° 0 mm 11 mps 740 mmHg 54%
    21:00 +23°C° 0 mm 11 mps 741 mmHg 55%
    22:00 +23°C° 0 mm 11 mps 741 mmHg 54%
    23:00 +23°C° 0 mm 11 mps 741 mmHg 54%

    6 June, Saturday

    Time Temperature Precipitation Wind Pressure Humidity
    00:00 +23°C° 0 mm 12 mps 741 mmHg 53%
    01:00 +23°C° 0 mm 10 mps 741 mmHg 55%
    02:00 +22°C° 0 mm 8 mps 741 mmHg 57%
    03:00 +22°C° 0 mm 7 mps 741 mmHg 59%
    04:00 +22°C° 0 mm 7 mps 741 mmHg 58%
    05:00 +23°C° 0 mm 7 mps 741 mmHg 57%
    06:00 +23°C° 0 mm 7 mps 741 mmHg 56%
    07:00 +24°C° 0 mm 7 mps 741 mmHg 51%
    08:00 +26°C° 0 mm 7 mps 742 mmHg 47%
    09:00 +28°C° 0 mm 8 mps 742 mmHg 42%
    10:00 +28°C° 0.1 mm 8 mps 742 mmHg 41%
    11:00 +29°C° 0.1 mm 8 mps 741 mmHg 40%
    12:00 +29°C° 0.1 mm 8 mps 741 mmHg 38%
    13:00 +29°C° 0 mm 8 mps 741 mmHg 38%
    14:00 +29°C° 0 mm 8 mps 740 mmHg 38%
    15:00 +28°C° 0 mm 8 mps 740 mmHg 38%
    16:00 +28°C° 0 mm 8 mps 739 mmHg 39%
    17:00 +27°C° 0 mm 8 mps 739 mmHg 40%
    18:00 +26°C° 0 mm 8 mps 739 mmHg 41%
    19:00 +26°C° 0 mm 8 mps 739 mmHg 43%
    20:00 +26°C° 0 mm 8 mps 740 mmHg 44%
    21:00 +24°C° 0 mm 7 mps 740 mmHg 45%
    22:00 +24°C° 0.1 mm 6 mps 740 mmHg 47%
    23:00 +23°C° 0.1 mm 5 mps 740 mmHg 49%

    7 June, Sunday

    Time Temperature Precipitation Wind Pressure Humidity
    00:00 +23°C° 0.1 mm 4 mps 740 mmHg 51%
    01:00 +23°C° 0.1 mm 4 mps 740 mmHg 51%
    02:00 +24°C° 0.1 mm 3 mps 739 mmHg 52%
    03:00 +22°C° 0.1 mm 3 mps 739 mmHg 53%
    04:00 +24°C° 0 mm 3 mps 739 mmHg 49%
    05:00 +25°C° 0 mm 3 mps 739 mmHg 45%
    06:00 +26°C° 0 mm 3 mps 739 mmHg 40%
    07:00 +27°C° 0 mm 4 mps 740 mmHg 37%
    08:00 +28°C° 0 mm 4 mps 740 mmHg 33%
    09:00 +29°C° 0 mm 4 mps 740 mmHg 30%
    10:00 +30°C° 0 mm 5 mps 740 mmHg 28%
    11:00 +32°C° 0 mm 5 mps 740 mmHg 27%
    12:00 +32°C° 0 mm 5 mps 740 mmHg 25%
    13:00 +33°C° 0 mm 5 mps 739 mmHg 25%
    14:00 +33°C° 0 mm 5 mps 739 mmHg 24%
    15:00 +33°C° 0 mm 5 mps 739 mmHg 23%
    16:00 +32°C° 0 mm 5 mps 739 mmHg 25%
    17:00 +30°C° 0 mm 4 mps 739 mmHg 27%
    18:00 +29°C° 0 mm 4 mps 739 mmHg 29%
    19:00 +28°C° 0 mm 3 mps 739 mmHg 31%
    20:00 +27°C° 0 mm 2 mps 739 mmHg 33%
    21:00 +26°C° 0 mm 1 mps 739 mmHg 35%
    22:00 +26°C° 0 mm 1 mps 739 mmHg 38%
    23:00 +23°C° 0 mm 0 mps 739 mmHg 40%
    Show more